Wind_Speed
19 19 19 18 18 17 17 18 18 18 17 18 18 18 19 19 18 18 19 15 10 10 12 10 10 9 9 8 10 5 3 2 4 4 9 8 1 5 6 8 9 9 7 14 28
19 20 20 21 21 20 19 18 18 19 19 18 18 18 20 21 22 18 2 4 6 8 8 9 10 11 6 6 6 5 4 9 6 4 7 11 6 12 5 5 7 9 6 19 31
18 19 20 21 22 22 22 22 20 19 19 19 19 19 20 20 21 4 5 5 4 6 7 6 6 7 7 8 8 7 5 4 6 10 10 7 3 11 11 6 15 18 18 32 33
19 19 20 21 21 22 22 22 23 22 20 19 18 18 18 17 5 2 4 6 6 10 10 9 8 5 4 6 10 4 10 10 7 3 4 5 2 7 19 22 17 21 22 32 35
21 22 22 23 22 23 22 21 21 23 23 20 18 17 16 10 19 16 14 14 11 9 11 11 9 5 5 5 4 5 5 6 15 21 6 7 6 7 21 26 12 23 29 31 33
21 23 23 25 25 25 24 23 23 22 22 22 19 18 15 8 9 6 4 4 7 9 11 13 11 9 8 7 7 7 8 11 10 15 5 6 8 13 10 22 20 26 33 31 31
24 25 26 26 27 26 25 24 22 22 20 19 17 18 21 28 14 21 26 24 20 15 15 11 8 12 2 5 7 7 5 7 6 3 4 4 3 3 10 16 26 32 36 34 32
27 27 28 28 29 28 26 22 20 19 17 15 14 14 16 19 21 23 21 23 16 14 24 19 12 8 9 6 6 5 3 4 6 4 2 5 7 5 5 20 24 28 36 37 36
28 27 27 27 27 26 22 18 17 16 13 11 7 6 12 7 6 2 1 14 10 10 17 14 6 7 4 4 4 4 5 4 7 5 1 3 7 5 13 20 22 26 29 35 38
26 26 26 27 27 25 20 16 13 11 10 6 3 4 8 7 9 15 20 14 8 13 7 11 8 4 3 3 6 4 3 4 5 5 6 3 8 8 17 21 25 25 27 30 37
27 28 26 27 25 19 22 12 11 1 21 11 18 19 28 25 25 31 18 19 18 7 4 6 4 6 11 9 5 3 4 7 4 5 4 4 7 14 11 15 17 24 30 31 38
26 27 27 26 23 11 11 9 11 11 13 16 7 13 13 13 11 12 2 3 5 6 3 2 5 9 10 6 5 4 6 7 6 3 2 12 12 13 6 13 27 29 28 33 28
26 25 27 25 17 12 7 11 12 16 4 10 9 7 10 11 6 7 6 6 6 4 6 10 6 11 5 4 4 5 4 6 9 4 5 6 8 6 5 10 19 24 38 29 36
25 25 27 24 7 15 1 10 14 8 4 7 7 4 16 13 6 18 13 10 3 10 7 6 8 9 6 5 8 7 6 8 6 3 5 2 5 9 5 7 8 23 25 35 38
23 24 23 23 19 13 5 10 9 2 4 10 6 8 24 1 11 11 25 6 9 8 7 9 7 7 10 15 9 10 7 9 6 4 1 3 2 8 4 5 9 11 30 40 45
22 23 24 21 15 6 7 7 1 5 3 7 6 8 11 4 5 11 8 5 4 4 4 7 6 8 9 8 9 4 3 4 4 3 2 7 6 4 5 9 6 7 31 39 38
21 19 19 15 9 5 4 2 5 3 5 7 6 10 4 5 8 6 7 8 2 4 3 4 7 3 4 3 2 4 6 3 3 2 6 3 2 8 9 11 10 11 22 29 38
19 14 6 10 5 3 2 4 4 1 3 5 5 9 4 7 5 7 8 7 3 1 2 4 7 8 4 9 9 7 9 6 5 4 6 2 4 8 11 13 18 22 26 30 37
17 5 7 10 9 5 2 4 4 3 3 7 9 4 5 3 0 7 5 3 3 4 3 2 6 4 6 6 9 5 4 7 2 4 3 4 7 9 10 11 8 15 18 24 33
15 4 5 5 8 8 5 2 2 4 4 1 2 1 3 5 6 5 4 3 9 5 4 5 4 3 2 3 2 6 6 3 3 2 4 7 5 8 12 11 17 18 23 19 15
9 2 5 1 5 5 3 4 4 11 5 5 4 3 6 4 3 4 4 8 5 11 4 3 1 7 1 4 6 1 1 2 5 5 5 8 7 6 7 8 13 18 29 20 14
5 2 3 3 5 3 1 3 5 7 3 4 3 5 4 3 4 3 4 4 20 13 8 3 2 3 6 5 4 5 8 7 6 6 4 5 11 6 8 7 13 17 24 10 3
8 2 3 2 2 3 5 4 3 4 4 4 2 2 2 3 4 1 4 11 14 10 5 6 3 5 9 5 3 2 3 5 4 3 8 6 8 7 9 10 15 17 24 20 13
5 2 2 3 5 3 3 3 5 10 5 4 3 4 4 2 2 5 5 6 24 11 11 3 2 5 4 6 4 8 8 4 4 5 6 7 6 10 11 8 10 18 27 29 28
5 1 2 2 3 3 0 2 4 6 6 7 4 2 4 3 5 3 4 6 13 3 4 3 3 3 6 5 9 5 11 17 5 4 7 6 7 2 4 8 8 18 22 25 25
3 2 2 1 3 2 2 2 2 4 3 4 2 9 4 4 6 6 4 4 8 7 5 2 3 1 4 5 3 3 9 16 9 5 5 10 7 4 6 11 16 20 20 24 27
1 1 2 2 1 1 3 1 3 6 6 9 6 4 6 6 13 26 25 23 12 4 4 3 4 2 5 6 5 6 4 8 6 4 5 2 5 7 11 13 13 14 19 24 21
Wind_Direction
352 350 347 344 342 340 336 332 330 327 325 323 322 321 319 314 311 305 294 283 265 225 227 215 199 190 188 217 217 196 78 235 266 292 293 311 210 163 193 163 167 212 238 178 169
345 343 340 338 335 333 332 330 327 324 321 319 318 319 319 319 318 312 287 267 227 208 195 194 199 197 203 214 203 166 154 213 199 242 276 298 223 149 147 194 195 191 220 174 175
344 339 336 333 330 327 325 323 321 319 317 316 316 317 318 322 327 145 85 59 187 191 211 212 222 219 210 199 203 185 208 231 243 258 268 285 245 170 140 238 216 194 177 176 179
344 340 336 332 327 323 321 319 317 311 306 307 310 312 314 315 316 298 289 323 331 231 225 226 228 204 218 207 202 199 228 257 275 224 266 267 298 200 182 223 241 216 199 180 187
347 343 341 337 332 325 320 317 313 309 304 299 301 305 308 283 264 291 291 304 283 252 246 253 228 230 217 223 213 219 240 221 267 299 250 246 238 201 223 228 240 212 194 192 195
341 337 337 335 332 328 325 322 315 309 300 295 291 291 288 263 294 267 243 308 317 280 272 279 256 261 266 236 189 231 247 268 284 287 255 178 232 173 248 241 227 199 196 193 200
336 333 334 332 330 325 325 327 318 313 303 289 282 281 275 262 273 276 280 280 278 258 255 278 277 247 289 299 296 284 277 307 273 275 283 301 346 167 273 233 208 200 195 192 201
332 332 334 334 332 328 328 327 322 320 314 302 285 275 262 278 273 271 278 285 290 278 248 264 270 230 216 273 339 350 19 291 294 337 281 79 275 213 305 203 196 193 194 195 201
329 326 327 330 334 332 328 324 318 305 315 321 300 248 268 287 287 180 316 326 314 283 242 235 260 231 166 103 3 352 243 253 313 289 68 81 270 231 310 221 202 196 203 197 202
328 327 328 334 338 340 342 337 313 287 315 321 348 304 271 299 290 287 296 304 319 312 265 224 201 127 68 83 232 209 235 241 248 306 349 269 267 286 320 206 201 203 207 207 204
331 331 333 335 339 347 355 358 4 336 315 275 283 283 292 300 294 285 278 295 290 245 202 201 129 174 211 200 186 198 228 251 251 230 280 270 283 293 295 199 200 206 209 217 212
331 333 336 340 341 360 16 56 34 328 306 325 308 273 339 326 292 334 143 218 183 202 200 342 200 211 222 174 205 241 270 285 284 290 185 298 287 287 213 214 204 206 215 218 214
335 335 338 342 345 357 5 18 354 334 295 305 325 289 355 327 281 315 318 206 185 204 199 210 212 215 181 185 186 226 209 248 248 329 215 286 309 329 290 265 226 220 222 221 219
336 337 336 343 352 345 23 346 334 328 54 293 341 358 348 324 285 312 323 246 224 207 203 230 225 218 219 218 176 252 205 251 282 64 273 92 282 305 252 245 215 220 220 228 225
327 334 331 334 328 334 326 333 332 134 11 327 329 331 336 261 305 335 335 209 212 200 138 229 180 189 224 232 198 234 177 207 245 215 66 205 137 269 329 247 232 228 221 226 227
325 330 323 324 328 318 320 329 48 40 282 330 341 328 353 330 302 302 335 282 282 202 287 238 202 166 207 220 189 209 166 61 57 95 335 249 165 264 241 233 272 233 228 230 224
328 328 321 321 311 318 317 335 41 113 338 334 331 334 340 297 319 7 331 348 14 5 298 309 253 229 160 258 184 141 75 323 328 11 225 4 73 236 271 257 232 250 229 232 232
340 335 4 24 29 44 20 53 85 303 297 304 314 323 339 360 314 326 350 352 353 174 248 202 289 163 183 181 205 193 161 166 203 212 257 124 255 275 236 268 270 275 272 258 237
348 42 58 40 46 37 6 61 191 210 284 323 326 359 316 320 211 358 340 271 284 6 303 214 277 301 166 167 145 191 159 205 195 55 43 268 299 299 294 287 276 277 300 285 233
354 83 64 47 31 14 66 219 253 226 313 342 267 274 300 300 10 359 330 296 320 335 187 274 315 255 299 144 222 163 171 101 52 86 313 298 293 261 290 314 324 326 325 310 237
354 114 14 84 11 27 106 234 277 280 259 200 218 273 254 292 291 280 274 298 7 320 344 332 127 288 282 178 217 147 248 85 116 158 167 276 264 229 320 342 329 339 324 315 214
7 55 14 132 44 48 122 211 303 291 354 286 234 222 250 284 291 306 336 275 336 331 327 307 159 291 257 281 267 188 214 172 151 220 234 184 258 54 9 350 6 5 10 17 142
355 11 48 170 92 338 316 303 277 321 309 316 289 5 1 301 340 294 318 288 323 325 351 326 343 338 346 356 2 343 285 237 141 105 194 167 256 69 35 20 10 48 43 53 87
2 20 41 98 83 112 17 315 320 322 276 315 269 15 348 326 327 292 318 304 316 306 322 30 179 187 226 237 329 293 318 294 198 150 188 207 261 9 1 20 7 50 62 59 66
13 56 58 325 15 6 341 302 322 338 328 331 322 348 271 281 313 275 275 309 301 258 333 97 266 199 271 254 270 266 8 346 279 254 174 189 144 348 52 63 39 65 72 73 69
6 29 6 281 309 322 55 166 262 318 253 317 14 313 247 237 211 258 220 216 253 310 354 315 273 251 283 270 271 286 9 338 328 14 60 114 107 69 95 80 72 74 74 69 68
358 357 329 319 17 85 219 311 279 346 268 254 319 294 282 252 289 276 262 257 246 338 329 285 171 110 270 316 305 85 36 261 277 341 307 269 95 100 75 65 28 52 66 72 68
Height
1537 1535 1532 1530 1528 1526 1524 1521 1519 1516 1514 1512 1510 1507 1505 1503 1501 1499 1497 1497 1497 1498 1499 1501 1502 1503 1504 1505 1505 1506 1515 1520 1508 1501 1492 1482 1481 1481 1482 1483 1486 1488 1487 1489 1491
1537 1534 1531 1529 1526 1524 1522 1520 1517 1515 1512 1510 1507 1505 1503 1500 1497 1494 1494 1493 1493 1495 1497 1498 1499 1501 1503 1502 1502 1503 1514 1504 1492 1490 1487 1482 1479 1479 1482 1484 1484 1485 1487 1487 1489
1537 1534 1531 1527 1525 1522 1519 1517 1515 1513 1510 1508 1505 1503 1501 1499 1495 1492 1492 1492 1493 1494 1495 1497 1497 1498 1499 1499 1498 1497 1502 1488 1486 1486 1486 1480 1478 1478 1479 1485 1477 1477 1484 1487 1487
1536 1533 1529 1526 1523 1520 1517 1514 1511 1509 1507 1505 1503 1501 1499 1499 1503 1493 1492 1492 1493 1494 1494 1494 1496 1497 1496 1494 1490 1494 1488 1486 1481 1483 1483 1479 1475 1475 1474 1468 1471 1475 1481 1485 1486
1534 1531 1527 1524 1520 1517 1514 1510 1507 1504 1503 1501 1500 1499 1498 1495 1490 1492 1490 1490 1490 1492 1493 1494 1494 1495 1494 1490 1488 1487 1483 1482 1479 1476 1479 1475 1474 1474 1471 1469 1470 1472 1477 1480 1486
1533 1530 1526 1522 1518 1514 1510 1507 1503 1500 1498 1497 1496 1495 1494 1492 1488 1488 1488 1488 1489 1490 1491 1491 1491 1491 1490 1488 1487 1480 1478 1476 1475 1472 1472 1473 1471 1470 1468 1468 1468 1468 1473 1476 1483
1531 1528 1523 1519 1515 1510 1506 1503 1499 1496 1493 1492 1491 1491 1489 1483 1486 1484 1484 1485 1485 1486 1487 1487 1488 1490 1489 1486 1484 1481 1482 1475 1471 1469 1469 1467 1469 1469 1467 1465 1464 1465 1468 1474 1479
1529 1525 1521 1516 1511 1506 1502 1499 1496 1492 1489 1488 1487 1487 1481 1478 1479 1479 1480 1480 1479 1479 1480 1482 1482 1483 1484 1484 1483 1485 1485 1491 1473 1469 1466 1466 1483 1465 1463 1464 1464 1466 1468 1470 1475
1526 1523 1519 1514 1509 1504 1499 1496 1493 1490 1487 1486 1485 1485 1477 1475 1475 1475 1475 1476 1475 1475 1474 1479 1481 1481 1481 1486 1495 1492 1501 1493 1484 1469 1466 1467 1473 1458 1462 1462 1463 1463 1468 1466 1472
1525 1520 1516 1512 1507 1502 1497 1493 1490 1487 1487 1485 1485 1486 1476 1475 1474 1473 1474 1474 1474 1473 1473 1476 1477 1481 1487 1495 1510 1499 1493 1490 1491 1476 1471 1472 1469 1457 1456 1456 1457 1462 1465 1467 1466
1522 1517 1514 1509 1505 1500 1495 1492 1491 1489 1487 1487 1485 1485 1475 1471 1469 1466 1469 1471 1470 1471 1474 1471 1480 1489 1481 1479 1479 1482 1486 1489 1480 1474 1473 1472 1470 1457 1454 1455 1456 1457 1458 1462 1461
1520 1515 1511 1508 1503 1501 1498 1496 1500 1502 1489 1481 1479 1478 1474 1471 1466 1461 1465 1469 1467 1471 1468 1474 1482 1472 1467 1473 1479 1482 1486 1488 1477 1470 1473 1469 1468 1452 1451 1448 1447 1449 1455 1455 1461
1517 1514 1509 1505 1502 1502 1499 1500 1500 1498 1495 1482 1479 1476 1475 1472 1467 1462 1463 1462 1463 1467 1469 1474 1470 1464 1469 1472 1477 1480 1484 1481 1482 1474 1469 1467 1472 1458 1450 1447 1448 1448 1445 1452 1452
1516 1512 1507 1504 1504 1501 1500 1500 1498 1496 1504 1490 1480 1477 1476 1471 1467 1461 1460 1461 1461 1464 1465 1467 1460 1463 1467 1470 1471 1483 1467 1471 1474 1482 1496 1468 1502 1467 1450 1447 1445 1443 1445 1443 1445
1515 1511 1507 1504 1503 1501 1501 1499 1497 1497 1518 1488 1482 1480 1477 1475 1471 1459 1456 1454 1456 1455 1458 1462 1458 1462 1466 1464 1462 1469 1462 1466 1467 1479 1482 1478 1494 1474 1452 1449 1445 1436 1435 1433 1434
1512 1510 1505 1502 1500 1500 1498 1498 1498 1510 1515 1494 1485 1483 1478 1472 1468 1460 1455 1454 1452 1454 1452 1451 1446 1450 1453 1451 1454 1455 1462 1469 1481 1488 1501 1476 1482 1478 1458 1440 1430 1428 1426 1425 1428
1509 1506 1502 1499 1498 1497 1497 1497 1512 1520 1499 1500 1494 1487 1486 1480 1471 1465 1463 1461 1464 1469 1467 1454 1449 1440 1444 1453 1452 1456 1476 1503 1501 1502 1500 1471 1478 1470 1443 1429 1425 1421 1420 1418 1420
1506 1503 1501 1499 1497 1497 1497 1500 1513 1506 1506 1496 1494 1489 1489 1481 1476 1472 1470 1473 1458 1460 1469 1470 1469 1443 1439 1446 1456 1461 1471 1496 1505 1506 1492 1471 1479 1455 1426 1423 1420 1415 1414 1413 1412
1503 1501 1501 1500 1499 1499 1499 1517 1513 1509 1504 1501 1496 1495 1493 1483 1483 1479 1475 1472 1461 1457 1471 1469 1459 1434 1432 1434 1440 1456 1468 1454 1469 1487 1492 1479 1463 1442 1424 1421 1416 1411 1407 1401 1401
1503 1501 1502 1501 1501 1500 1504 1515 1509 1504 1501 1500 1505 1497 1499 1490 1487 1484 1479 1465 1463 1455 1455 1455 1463 1436 1430 1431 1433 1440 1439 1464 1469 1500 1503 1486 1477 1465 1436 1428 1422 1415 1408 1399 1397
1503 1502 1503 1503 1503 1502 1515 1516 1507 1499 1501 1501 1501 1501 1496 1494 1487 1485 1479 1468 1462 1456 1453 1454 1458 1449 1436 1437 1442 1443 1449 1447 1453 1474 1496 1496 1479 1444 1440 1437 1430 1421 1410 1405 1400
1503 1504 1504 1504 1506 1511 1513 1509 1505 1500 1497 1496 1495 1496 1494 1491 1489 1484 1483 1475 1464 1463 1462 1454 1464 1464 1445 1431 1430 1433 1439 1442 1465 1478 1470 1475 1457 1440 1443 1439 1428 1423 1415 1411 1411
1506 1505 1506 1505 1514 1515 1510 1508 1505 1502 1498 1495 1495 1492 1489 1490 1493 1484 1479 1470 1466 1463 1462 1458 1467 1476 1457 1442 1433 1436 1433 1434 1437 1449 1459 1471 1450 1438 1441 1437 1432 1424 1421 1420 1418
1509 1509 1507 1506 1509 1512 1514 1510 1507 1501 1498 1496 1494 1491 1492 1491 1489 1489 1482 1471 1465 1462 1457 1456 1468 1472 1476 1462 1451 1448 1438 1434 1439 1458 1452 1446 1435 1438 1442 1439 1434 1424 1424 1427 1425
1511 1512 1513 1514 1512 1513 1513 1512 1509 1507 1499 1496 1494 1493 1495 1494 1492 1488 1482 1476 1463 1458 1457 1457 1466 1462 1456 1454 1448 1441 1440 1438 1439 1427 1432 1431 1440 1443 1443 1438 1436 1429 1427 1426 1427
1513 1513 1513 1513 1512 1512 1512 1511 1510 1507 1506 1498 1498 1493 1490 1492 1488 1488 1482 1480 1474 1458 1458 1458 1461 1458 1458 1448 1444 1441 1441 1436 1443 1436 1437 1433 1442 1441 1442 1440 1438 1433 1432 1431 1430
1513 1513 1513 1513 1512 1513 1512 1511 1508 1508 1499 1497 1496 1495 1490 1485 1481 1475 1472 1469 1466 1467 1466 1465 1464 1465 1466 1451 1444 1455 1453 1450 1444 1441 1443 1440 1442 1441 1444 1442 1446 1444 1441 1436 1432